Flag for USA Past Weather in Kykotsmovi Village, Hopi, Arizona, USA — Yesterday and Last 2 Weeks

56 °F


Feels Like: 55 °F
Forecast: 46 / 74 °F
Wind: 5 mph from Southeast

Location: Winslow Municipal Airport

Current Time: Oct 24, 2016 at 12:06:20 AM

Latest Report: Oct 23, 2016 at 10:56 PM

Visibility: 10 mi

Pressure: 30.09 "Hg (24.49 "Hg at 1727m altitude)

Humidity: 39%

Dew Point: 31 °F

Location of Kykotsmovi Village, HopiLocation

Past Weather in Kykotsmovi Village, Hopi — Graph


Kykotsmovi Village, Hopi Temperature Yesterday

Maximum temperature yesterday: 81 °F (at 2:56 PM)
Minimum temperature yesterday: 48 °F (at 5:56 AM)
Average temperature yesterday: 63 °F

High & Low Weather Summary for the Past Weeks

High86 °F (Oct 14, 2:56 PM)89% (Oct 9, 1:56 AM)30.38 "Hg (Oct 9, 1:56 AM)
Low31 °F (Oct 20, 3:56 AM)8% (Oct 14, 2:56 PM)29.74 "Hg (Oct 17, 3:56 PM)
Average61 °F34%30.01 "Hg
* Reported Oct 8 10:56 PM — Oct 23 10:56 PM, Kykotsmovi Village, Hopi, Weather by CustomWeather, © 2016

Note: Actual official high and low records may vary slightly from our data, if they occured in-between our weather recording intervals... More about our weather records


Kykotsmovi Village, Hopi Weather History for the Previous 24 Hours

Scroll right to see more
Time TempWeatherWind HumidityBarometerVisibility
10:56 PM
Sun, Oct 23
56 °FClear.5 mph39%30.09 "Hg10 mi
9:56 PM55 °FClear.No wind39%30.11 "Hg10 mi
8:56 PM60 °FClear.8 mph32%30.11 "Hg10 mi
7:56 PM63 °FClear.9 mph27%30.10 "Hg10 mi
6:56 PM62 °FClear.7 mph25%30.10 "Hg10 mi
5:56 PM74 °FPassing clouds.5 mph17%30.05 "Hg10 mi
4:56 PM79 °FScattered clouds.6 mph15%30.01 "Hg10 mi
3:56 PM81 °FSunny.7 mph14%30.01 "Hg10 mi
2:56 PM81 °FSunny.6 mph15%30.02 "Hg10 mi
1:56 PM80 °FSunny.5 mph16%30.02 "Hg10 mi
12:56 PM79 °FSunny.7 mph17%30.05 "Hg10 mi
11:56 AM78 °FSunny.5 mph19%30.07 "Hg10 mi
10:56 AM74 °FSunny.6 mph25%30.11 "Hg10 mi
9:56 AM67 °FSunny.7 mph33%30.14 "Hg10 mi
8:56 AM59 °FSunny.8 mph42%30.16 "Hg10 mi
7:56 AM52 °FSunny.9 mph53%30.16 "Hg10 mi
6:56 AM49 °FSunny.9 mph59%30.13 "Hg10 mi
5:56 AM48 °FClear.8 mph61%30.10 "Hg10 mi
4:56 AM50 °FClear.8 mph57%30.06 "Hg10 mi
3:56 AM49 °FClear.7 mph59%30.03 "Hg10 mi
2:56 AM50 °FClear.6 mph57%30.01 "Hg10 mi
1:56 AM55 °FClear.No wind49%30.00 "Hg10 mi
12:56 AM55 °FClear.No wind51%29.98 "Hg10 mi
Weather by CustomWeather, © 2016

See weather overviewHow to use our weather pages